Terminal Aerodrome Forecast
Issued by NWS Omaha/Valley, NE

Home | Current Version | Previous Version | Text Only | Print | Product List | Glossary Off
Versions: 1 2 3 4 5 6 7 8 9 10 11 12 13 14 15 16 17 18 19 20 21 22 23 24 25 26 27 28 29 30 31 32 33 34 35 36 37 38

000
FTUS43 KOAX 171120
TAFOFK
TAF
KOFK 171120Z 1712/1812 08004KT P6SM SCT015 BKN120
     FM180900 14006KT P6SM SCT012 OVC040=

USA.gov is the U.S. government's official web portal to all federal, state and local government web resources and services.